GW4429 Weather Reports


Display with metric or nautical units.
time (UTC)temp
F
wind
direction
speed
MPH
gust
MPH
rain 1hr
in
rain 24hr
in
rain mn
in
humidity
%
barometer
mb
20260507151549 88 132 7.0 16.0 0.00 0.00 0.00 74 1018.3
20260507151034 88 145 7.0 15.0 0.00 0.00 0.00 74 1018.2
20260507150534 88 161 7.0 17.0 0.00 0.00 0.00 74 1018.3
20260507150048 88 192 9.0 17.0 0.00 0.00 0.00 73 1018.3
20260507145534 88 158 10.0 17.0 0.00 0.00 0.00 73 1018.2
20260507145038 88 133 8.0 19.0 0.00 0.00 0.00 73 1018.2
20260507144551 88 101 10.0 19.0 0.00 0.00 0.00 73 1018.3
20260507144034 88 173 7.0 17.0 0.00 0.00 0.00 73 1018.3
20260507143535 87 97 8.0 17.0 0.00 0.00 0.00 74 1018.4
20260507143050 87 175 10.0 17.0 0.00 0.00 0.00 72 1018.4
20260507142535 87 134 8.0 16.0 0.00 0.00 0.00 74 1018.4
20260507142036 87 150 9.0 16.0 0.00 0.00 0.00 73 1018.4
20260507141546 87 125 7.0 16.0 0.00 0.00 0.00 73 1018.4
20260507141036 86 140 7.0 16.0 0.00 0.00 0.00 75 1018.3
20260507140538 86 126 10.0 15.0 0.00 0.00 0.00 75 1018.3
20260507140053 86 130 8.0 17.0 0.00 0.00 0.00 74 1018.3
20260507135536 86 115 10.0 17.0 0.00 0.00 0.00 74 1018.4
20260507135036 86 115 10.0 16.0 0.00 0.00 0.00 74 1018.3
20260507134551 86 123 7.0 17.0 0.00 0.00 0.00 74 1018.3
20260507134035 86 104 10.0 17.0 0.00 0.00 0.00 73 1018.3
20260507133536 86 136 11.0 17.0 0.00 0.00 0.00 73 1018.2
20260507133050 86 128 9.0 16.0 0.00 0.00 0.00 75 1018.2
20260507132535 86 130 7.0 15.0 0.00 0.00 0.00 75 1018.1
20260507132035 85 133 7.0 15.0 0.00 0.00 0.00 76 1018.1
20260507131548 85 101 10.0 15.0 0.00 0.00 0.00 75 1018.1
20260507131035 85 123 10.0 14.0 0.00 0.00 0.00 75 1018.2
20260507130535 85 113 10.0 15.0 0.00 0.00 0.00 74 1018.1
20260507125536 84 141 9.0 15.0 0.00 0.00 0.00 76 1018.0
20260507125036 84 98 7.0 15.0 0.00 0.00 0.00 76 1017.9
20260507124600 84 126 9.0 15.0 0.00 0.00 0.00 76 1017.9
20260507124036 84 101 5.0 14.0 0.00 0.00 0.00 76 1017.9
20260507123536 84 105 8.0 15.0 0.00 0.00 0.00 77 1017.8
20260507123043 83 140 5.0 15.0 0.00 0.00 0.00 77 1017.8
20260507122536 83 129 7.0 12.0 0.00 0.00 0.00 77 1017.7
20260507122036 83 96 6.0 14.0 0.00 0.00 0.00 77 1017.7
20260507121543 83 78 7.0 14.0 0.00 0.00 0.00 78 1017.6
20260507121036 83 150 6.0 12.0 0.00 0.00 0.00 78 1017.4
20260507120535 82 114 3.0 9.0 0.00 0.00 0.00 78 1017.3
20260507120043 82 90 4.0 10.0 0.00 0.00 0.00 78 1017.4
20260507115536 81 60 6.0 12.0 0.00 0.00 0.00 78 1017.4
20260507115035 81 92 5.0 12.0 0.00 0.00 0.00 79 1017.3
20260507114605 81 101 5.0 11.0 0.00 0.00 0.00 79 1017.2
20260507114036 80 89 3.0 9.0 0.00 0.00 0.00 80 1017.2
20260507113536 80 49 5.0 10.0 0.00 0.00 0.00 80 1017.2
20260507113047 80 94 4.0 10.0 0.00 0.00 0.00 81 1017.3
20260507112535 79 117 5.0 9.0 0.00 0.00 0.00 82 1017.2
20260507112038 79 96 5.0 9.0 0.00 0.00 0.00 83 1017.2
20260507111545 78 78 4.0 8.0 0.00 0.00 0.00 83 1017.3
20260507111035 78 80 4.0 9.0 0.00 0.00 0.00 83 1017.3
20260507110534 78 61 4.0 9.0 0.00 0.00 0.00 83 1017.3
20260507110047 78 47 5.0 9.0 0.00 0.00 0.00 84 1017.3
20260507105533 78 34 4.0 9.0 0.00 0.00 0.00 83 1017.3
20260507105033 78 24 4.0 9.0 0.00 0.00 0.00 83 1017.2
20260507104550 78 36 4.0 9.0 0.00 0.00 0.00 82 1017.1
20260507104034 78 51 4.0 11.0 0.00 0.00 0.00 82 1017.1
20260507103536 78 44 6.0 11.0 0.00 0.00 0.00 82 1017.0
20260507103041 79 53 4.0 8.0 0.00 0.00 0.00 82 1017.0
20260507102534 79 76 3.0 9.0 0.00 0.00 0.00 82 1016.9
20260507102035 79 51 4.0 10.0 0.00 0.00 0.00 81 1016.9
20260507101543 79 66 5.0 10.0 0.00 0.00 0.00 82 1016.8
20260507101035 79 86 5.0 11.0 0.00 0.00 0.00 82 1016.6
20260507100535 79 99 4.0 11.0 0.00 0.00 0.00 82 1016.6
20260507100048 79 80 3.0 12.0 0.00 0.00 0.00 82 1016.4
20260507095534 78 119 5.0 12.0 0.00 0.00 0.00 82 1016.5
20260507095033 78 63 5.0 11.0 0.00 0.00 0.00 82 1016.4
20260507094545 78 86 6.0 12.0 0.00 0.00 0.00 82 1016.4
20260507094036 78 90 5.0 12.0 0.00 0.00 0.00 82 1016.3
20260507093534 78 51 5.0 11.0 0.00 0.00 0.00 83 1016.4
20260507093044 77 50 6.0 11.0 0.00 0.00 0.00 83 1016.5
20260507092534 77 58 5.0 11.0 0.00 0.00 0.00 83 1016.5
20260507092033 77 68 3.0 9.0 0.00 0.00 0.00 83 1016.4
20260507091544 77 78 4.0 9.0 0.00 0.00 0.00 83 1016.6
20260507091034 77 56 4.0 7.0 0.00 0.00 0.00 83 1016.6
20260507090536 77 84 3.0 9.0 0.00 0.00 0.00 83 1016.6
20260507090047 77 53 4.0 9.0 0.00 0.00 0.00 83 1016.5
20260507085534 77 34 5.0 9.0 0.00 0.00 0.00 83 1016.5
20260507085036 77 59 4.0 10.0 0.00 0.00 0.00 82 1016.5
20260507084550 77 17 5.0 11.0 0.00 0.00 0.00 83 1016.6
20260507084036 76 35 5.0 11.0 0.00 0.00 0.00 83 1016.6
20260507083535 76 51 4.0 10.0 0.00 0.00 0.00 83 1016.5
20260507083047 76 32 4.0 8.0 0.00 0.00 0.00 83 1016.6
20260507082538 76 46 4.0 7.0 0.00 0.00 0.00 83 1016.6
20260507082039 76 36 4.0 6.0 0.00 0.00 0.00 84 1016.6
20260507081544 76 46 4.0 7.0 0.00 0.00 0.00 84 1016.6
20260507081035 76 41 4.0 7.0 0.00 0.00 0.00 84 1016.5
20260507080536 76 24 3.0 9.0 0.00 0.00 0.00 84 1016.4
20260507080044 76 47 4.0 9.0 0.00 0.00 0.00 84 1016.4
20260507075535 76 44 4.0 9.0 0.00 0.00 0.00 84 1016.5
20260507075038 76 49 3.0 10.0 0.00 0.00 0.00 84 1016.5
20260507074605 77 50 4.0 10.0 0.00 0.00 0.00 84 1016.3
20260507074035 77 34 5.0 9.0 0.00 0.00 0.00 84 1016.5
20260507073538 77 61 5.0 9.0 0.00 0.00 0.00 84 1016.5
20260507073048 77 42 4.0 8.0 0.00 0.00 0.00 84 1016.6
20260507072536 77 40 5.0 9.0 0.00 0.00 0.00 84 1016.5
20260507072036 77 53 4.0 9.0 0.00 0.00 0.00 84 1016.5
20260507071551 77 37 5.0 9.0 0.00 0.00 0.00 84 1016.6
20260507071035 77 55 4.0 9.0 0.00 0.00 0.00 84 1016.7
20260507070535 77 57 5.0 9.0 0.00 0.00 0.00 84 1016.7
20260507070104 77 35 4.0 11.0 0.00 0.00 0.00 83 1016.7
20260507065535 77 53 5.0 11.0 0.00 0.00 0.00 83 1016.8
20260507065036 77 48 5.0 10.0 0.00 0.00 0.00 83 1016.8
20260507064544 77 65 5.0 10.0 0.00 0.00 0.00 83 1017.0
20260507064035 78 36 4.0 10.0 0.00 0.00 0.00 82 1017.0
20260507063536 78 50 5.0 10.0 0.00 0.00 0.00 82 1017.1
20260507063056 78 54 5.0 10.0 0.00 0.00 0.00 81 1017.2
20260507062535 78 70 5.0 10.0 0.00 0.00 0.00 81 1017.2
20260507062036 78 56 4.0 10.0 0.00 0.00 0.00 81 1017.3
20260507061548 78 63 5.0 10.0 0.00 0.00 0.00 81 1017.3
20260507061035 78 102 4.0 10.0 0.00 0.00 0.00 80 1017.4
20260507060535 78 68 4.0 9.0 0.00 0.00 0.00 81 1017.5
20260507060046 78 72 4.0 9.0 0.00 0.00 0.00 81 1017.6
20260507055536 78 67 3.0 7.0 0.00 0.00 0.00 81 1017.5
20260507055036 78 62 4.0 10.0 0.00 0.00 0.00 81 1017.6
20260507054548 78 59 3.0 10.0 0.00 0.00 0.00 80 1017.6
20260507054035 78 71 3.0 7.0 0.00 0.00 0.00 81 1017.8
20260507053536 78 74 3.0 8.0 0.00 0.00 0.00 81 1017.8
20260507053046 78 76 4.0 8.0 0.00 0.00 0.00 81 1017.9
20260507052535 78 82 3.0 7.0 0.00 0.00 0.00 81 1017.9
20260507052035 78 80 2.0 8.0 0.00 0.00 0.00 81 1018.0
20260507051547 78 72 3.0 8.0 0.00 0.00 0.00 81 1018.0
20260507051034 78 84 2.0 9.0 0.00 0.00 0.00 81 1018.1
20260507050538 78 55 3.0 9.0 0.00 0.00 0.00 82 1018.2
20260507050044 78 66 3.0 7.0 0.00 0.00 0.00 82 1018.1
20260507045536 78 51 2.0 8.0 0.00 0.00 0.00 82 1018.3
20260507045035 78 74 3.0 9.0 0.00 0.00 0.00 82 1018.3
20260507044544 78 56 3.0 9.0 0.00 0.00 0.00 82 1018.3
20260507044035 78 38 5.0 10.0 0.00 0.00 0.00 83 1018.4
20260507043535 78 55 6.0 10.0 0.00 0.00 0.00 83 1018.5
20260507043048 78 55 5.0 9.0 0.00 0.00 0.00 83 1018.6
20260507042535 78 61 4.0 9.0 0.00 0.00 0.00 84 1018.6
20260507042035 78 42 3.0 6.0 0.00 0.00 0.00 84 1018.7
20260507041546 78 38 3.0 5.0 0.00 0.00 0.00 84 1018.8
20260507041035 78 40 3.0 7.0 0.00 0.00 0.00 84 1018.7
20260507040537 78 25 3.0 8.0 0.00 0.00 0.00 84 1018.8
20260507040047 78 24 4.0 9.0 0.00 0.00 0.00 84 1018.7
20260507035535 78 40 4.0 10.0 0.00 0.00 0.00 84 1018.8
20260507035035 78 43 5.0 10.0 0.00 0.00 0.00 85 1018.8
20260507034545 78 55 3.0 7.0 0.00 0.00 0.00 85 1018.9
20260507034036 78 49 3.0 7.0 0.00 0.00 0.00 85 1018.9
20260507033535 78 31 3.0 9.0 0.00 0.00 0.00 85 1019.1
20260507033045 78 39 4.0 9.0 0.00 0.00 0.00 85 1019.1
20260507032539 78 28 3.0 6.0 0.00 0.00 0.00 85 1019.2
20260507032035 78 42 3.0 7.0 0.00 0.00 0.00 85 1019.2
20260507031542 78 24 3.0 7.0 0.00 0.00 0.00 85 1019.2
20260507031036 78 21 3.0 6.0 0.00 0.00 0.00 85 1019.2
20260507030536 78 24 3.0 7.0 0.00 0.00 0.00 85 1019.2
20260507030049 78 25 4.0 7.0 0.00 0.00 0.00 85 1019.2
20260507025535 78 42 3.0 6.0 0.00 0.00 0.00 85 1019.2
20260507025035 78 44 4.0 6.0 0.00 0.00 0.00 85 1019.2
20260507024546 79 41 3.0 5.0 0.00 0.00 0.00 85 1019.2
20260507024036 79 59 3.0 7.0 0.00 0.00 0.00 85 1019.3
20260507023535 79 35 3.0 7.0 0.00 0.00 0.00 85 1019.2
20260507023047 79 36 3.0 6.0 0.00 0.00 0.00 84 1019.2
20260507022535 79 33 3.0 6.0 0.00 0.00 0.00 84 1019.0
20260507022034 79 30 3.0 5.0 0.00 0.00 0.00 84 1019.0
20260507021545 79 35 3.0 5.0 0.00 0.00 0.00 84 1019.1
20260507021036 79 38 3.0 7.0 0.00 0.00 0.00 84 1018.9
20260507020534 79 39 3.0 7.0 0.00 0.00 0.00 85 1018.9
20260507020044 79 38 2.0 5.0 0.00 0.00 0.00 85 1018.9
20260507015534 79 28 2.0 4.0 0.00 0.00 0.00 84 1018.9
20260507015033 79 40 2.0 5.0 0.00 0.00 0.00 84 1018.9
20260507014553 79 29 2.0 5.0 0.00 0.00 0.00 84 1018.8
20260507014034 79 40 3.0 5.0 0.00 0.00 0.00 84 1018.8
20260507013535 79 36 3.0 6.0 0.00 0.00 0.00 84 1018.7
20260507013101 80 40 3.0 6.0 0.00 0.00 0.00 84 1018.7
20260507012535 80 40 3.0 6.0 0.00 0.00 0.00 83 1018.7
20260507012112 80 40 3.0 6.0 0.00 0.00 0.00 83 1018.7
20260507011546 80 42 3.0 6.0 0.00 0.00 0.00 83 1018.6
20260507011034 80 53 4.0 6.0 0.00 0.00 0.00 83 1018.5
20260507010534 80 57 3.0 5.0 0.00 0.00 0.00 83 1018.4
20260507010054 80 51 2.0 5.0 0.00 0.00 0.00 83 1018.6
20260507005535 80 29 2.0 5.0 0.00 0.00 0.00 83 1018.5
20260507005033 80 33 2.0 5.0 0.00 0.00 0.00 82 1018.6
20260507004546 81 26 2.0 7.0 0.00 0.00 0.00 82 1018.4
20260507004035 81 50 3.0 8.0 0.00 0.00 0.00 81 1018.3
20260507003537 81 38 5.0 8.0 0.00 0.00 0.00 81 1018.2
20260507003043 82 57 4.0 6.0 0.00 0.00 0.00 80 1018.3
20260507002534 82 45 2.0 5.0 0.00 0.00 0.00 80 1018.3
20260507002034 83 74 2.0 7.0 0.00 0.00 0.00 79 1018.2
20260507001552 83 78 2.0 10.0 0.00 0.00 0.00 79 1018.2
20260507001033 83 64 4.0 10.0 0.00 0.00 0.00 79 1018.1
20260507000536 83 76 3.0 9.0 0.00 0.00 0.00 79 1018.1
20260507000042 84 84 4.0 10.0 0.00 0.00 0.00 79 1018.0
20260506235534 84 89 5.0 10.0 0.00 0.00 0.00 79 1017.9
20260506235035 84 114 3.0 10.0 0.00 0.00 0.00 79 1017.8
20260506234548 84 103 4.0 11.0 0.00 0.00 0.00 79 1017.9
20260506234034 84 86 5.0 11.0 0.00 0.00 0.00 79 1017.8
20260506233535 84 126 4.0 10.0 0.00 0.00 0.00 78 1017.6
20260506233100 84 113 4.0 11.0 0.00 0.00 0.00 78 1017.6
20260506232538 84 94 4.0 11.0 0.00 0.00 0.00 78 1017.6
20260506232034 84 112 5.0 11.0 0.00 0.00 0.00 78 1017.5
20260506231544 84 123 3.0 13.0 0.00 0.00 0.00 78 1017.4
20260506231035 84 123 6.0 13.0 0.00 0.00 0.00 77 1017.3
20260506230533 84 133 6.0 11.0 0.00 0.00 0.00 78 1017.4
20260506230048 84 76 4.0 12.0 0.00 0.00 0.00 78 1017.3
20260506225535 84 115 6.0 13.0 0.00 0.00 0.00 77 1017.3
20260506225035 85 136 6.0 13.0 0.00 0.00 0.00 77 1017.2
20260506224543 85 126 5.0 13.0 0.00 0.00 0.00 77 1017.2
20260506224034 85 108 5.0 14.0 0.00 0.00 0.00 77 1017.1
20260506223536 85 138 7.0 17.0 0.00 0.00 0.00 76 1017.1
20260506223049 86 97 8.0 17.0 0.00 0.00 0.00 76 1016.9
20260506222535 86 105 6.0 14.0 0.00 0.00 0.00 76 1016.8
20260506222035 86 112 9.0 15.0 0.00 0.00 0.00 75 1016.8
20260506221555 87 132 8.0 15.0 0.00 0.00 0.00 74 1016.7
20260506221034 87 129 8.0 16.0 0.00 0.00 0.00 74 1016.7
20260506220536 88 145 9.0 16.0 0.00 0.00 0.00 73 1016.7
20260506220046 88 134 6.0 14.0 0.00 0.00 0.00 74 1016.7
20260506215536 88 103 9.0 15.0 0.00 0.00 0.00 73 1016.7
20260506215034 88 107 8.0 15.0 0.00 0.00 0.00 73 1016.6
20260506214545 88 139 10.0 15.0 0.00 0.00 0.00 71 1016.6
20260506214033 89 114 8.0 15.0 0.00 0.00 0.00 72 1016.7
20260506213534 88 139 9.0 16.0 0.00 0.00 0.00 72 1016.7
20260506213044 89 126 11.0 16.0 0.00 0.00 0.00 71 1016.8
20260506212534 89 128 9.0 16.0 0.00 0.00 0.00 71 1016.7
20260506212037 89 96 7.0 18.0 0.00 0.00 0.00 71 1016.7
20260506211554 89 155 10.0 18.0 0.00 0.00 0.00 71 1016.6
20260506211034 89 104 9.0 17.0 0.00 0.00 0.00 70 1016.6
20260506210534 90 123 8.0 16.0 0.00 0.00 0.00 70 1016.5
20260506210048 90 127 9.0 17.0 0.00 0.00 0.00 70 1016.6
20260506205537 90 120 7.0 17.0 0.00 0.00 0.00 69 1016.6
20260506205034 90 140 7.0 18.0 0.00 0.00 0.00 70 1016.5
20260506204548 90 109 10.0 18.0 0.00 0.00 0.00 69 1016.5
20260506204034 90 133 8.0 18.0 0.00 0.00 0.00 69 1016.5
20260506203534 90 132 11.0 18.0 0.00 0.00 0.00 69 1016.5
20260506203046 90 138 9.0 18.0 0.00 0.00 0.00 69 1016.5
20260506202534 90 147 8.0 17.0 0.00 0.00 0.00 69 1016.5
20260506202034 90 130 8.0 17.0 0.00 0.00 0.00 69 1016.5
20260506201546 90 144 6.0 17.0 0.00 0.00 0.00 69 1016.4
20260506201035 90 164 10.0 17.0 0.00 0.00 0.00 70 1016.5
20260506200534 90 111 8.0 15.0 0.00 0.00 0.00 70 1016.5
20260506200047 90 162 9.0 15.0 0.00 0.00 0.00 69 1016.5
20260506195535 90 119 8.0 17.0 0.00 0.00 0.00 69 1016.6
20260506195034 90 77 9.0 17.0 0.00 0.00 0.00 69 1016.7
20260506194548 90 135 7.0 18.0 0.00 0.00 0.00 69 1016.8
20260506194034 90 104 9.0 19.0 0.00 0.00 0.00 70 1016.8
20260506193533 90 135 9.0 19.0 0.00 0.00 0.00 69 1016.9
20260506193043 90 105 9.0 16.0 0.00 0.00 0.00 70 1016.9
20260506192535 90 90 6.0 18.0 0.00 0.00 0.00 70 1017.0
20260506192035 90 120 9.0 18.0 0.00 0.00 0.00 68 1016.9
20260506191542 90 134 10.0 17.0 0.00 0.00 0.00 68 1017.0
20260506191034 90 134 6.0 15.0 0.00 0.00 0.00 68 1017.0
20260506190534 90 115 9.0 19.0 0.00 0.00 0.00 68 1017.0
20260506190046 91 136 9.0 19.0 0.00 0.00 0.00 67 1017.0
20260506185534 91 105 9.0 16.0 0.00 0.00 0.00 68 1017.0
20260506185034 90 132 8.0 17.0 0.00 0.00 0.00 69 1016.9
20260506184544 90 155 8.0 18.0 0.00 0.00 0.00 69 1017.1
20260506184035 90 142 10.0 18.0 0.00 0.00 0.00 68 1017.1
20260506183535 90 128 10.0 17.0 0.00 0.00 0.00 70 1017.2
20260506183042 90 134 7.0 18.0 0.00 0.00 0.00 70 1017.1
20260506182533 90 132 7.0 18.0 0.00 0.00 0.00 72 1017.2
20260506182033 90 163 8.0 18.0 0.00 0.00 0.00 70 1017.2
20260506181540 90 116 11.0 18.0 0.00 0.00 0.00 71 1017.3
20260506181036 90 108 7.0 17.0 0.00 0.00 0.00 72 1017.5
20260506180535 90 115 9.0 19.0 0.00 0.00 0.00 71 1017.6
20260506180049 90 140 10.0 19.0 0.00 0.00 0.00 70 1017.6
20260506175533 90 155 9.0 17.0 0.00 0.00 0.00 71 1017.7
20260506175035 90 114 8.0 17.0 0.00 0.00 0.00 72 1017.8
20260506174547 90 119 10.0 18.0 0.00 0.00 0.00 71 1017.9
20260506174034 90 86 9.0 18.0 0.00 0.00 0.00 71 1017.9
20260506173534 90 111 7.0 17.0 0.00 0.00 0.00 71 1018.1
20260506173053 90 136 8.0 17.0 0.00 0.00 0.00 71 1018.1
20260506172534 90 103 7.0 17.0 0.00 0.00 0.00 70 1018.2
20260506172034 89 128 8.0 19.0 0.00 0.00 0.00 69 1018.4
20260506171551 90 138 10.0 19.0 0.00 0.00 0.00 69 1018.4
20260506171034 90 155 9.0 17.0 0.00 0.00 0.00 69 1018.5
20260506170533 90 141 6.0 16.0 0.00 0.00 0.00 71 1018.7
20260506170044 90 134 11.0 16.0 0.00 0.00 0.00 70 1018.8
20260506165534 90 196 6.0 15.0 0.00 0.00 0.00 70 1018.8
20260506165034 90 119 7.0 17.0 0.00 0.00 0.00 71 1018.9
20260506164553 89 135 6.0 17.0 0.00 0.00 0.00 71 1018.9
20260506164033 89 127 6.0 14.0 0.00 0.00 0.00 71 1018.9
20260506163533 89 112 7.0 16.0 0.00 0.00 0.00 71 1019.1
20260506163044 89 111 8.0 16.0 0.00 0.00 0.00 71 1019.1
20260506162534 89 135 10.0 18.0 0.00 0.00 0.00 71 1019.1
20260506162034 89 162 6.0 18.0 0.00 0.00 0.00 71 1019.2
20260506161546 89 177 9.0 18.0 0.00 0.00 0.00 71 1019.2
20260506161034 89 109 9.0 18.0 0.00 0.00 0.00 71 1019.3
20260506160534 89 132 9.0 17.0 0.00 0.00 0.00 71 1019.2
20260506160059 89 111 9.0 18.0 0.00 0.00 0.00 71 1019.3
20260506155534 88 130 9.0 20.0 0.00 0.00 0.00 70 1019.4
20260506155034 88 127 11.0 21.0 0.00 0.00 0.00 71 1019.4
20260506154551 88 177 10.0 21.0 0.00 0.00 0.00 71 1019.4
20260506154035 88 173 7.0 17.0 0.00 0.00 0.00 72 1019.5
20260506153533 88 117 9.0 18.0 0.00 0.00 0.00 72 1019.4
20260506153048 88 148 9.0 18.0 0.00 0.00 0.00 72 1019.6
20260506152534 87 98 9.0 18.0 0.00 0.00 0.00 73 1019.5
20260506152034 87 113 9.0 18.0 0.00 0.00 0.00 73 1019.6